OE6ATD-13 Weather Reports


time (UTC)temp
C
wind
direction
speed
KPH
gust
KPH
rain 1hr
cm
rain 24hr
cm
rain mn
cm
humidity
%
barometer
mb
20260504213527 16 66 0.0 4.8 0.00 0.00 0.00 46 1012.6
20260504212523 16 0.0 0.0 0.00 0.00 0.00 48 1012.5
20260504211519 16 270 0.0 1.6 0.00 0.00 0.00 50 1012.6
20260504210530 15 0.0 0.0 0.00 0.00 0.00 51 1012.5
20260504205525 16 0.0 0.0 0.00 0.00 0.00 51 1012.6
20260504204521 16 0.0 0.0 0.00 0.00 0.00 50 1012.7
20260504203524 17 0.0 0.0 0.00 0.00 0.00 50 1012.6
20260504202519 17 270 0.0 1.6 0.00 0.00 0.00 50 1012.7
20260504201515 16 225 0.0 3.2 0.00 0.00 0.00 52 1012.7
20260504200526 16 315 0.0 1.6 0.00 0.00 0.00 54 1012.7
20260504195522 16 0.0 0.0 0.00 0.00 0.00 53 1012.8
20260504194517 17 0.0 0.0 0.00 0.00 0.00 49 1012.8
20260504193528 17 0.0 0.0 0.00 0.00 0.00 47 1012.7
20260504192524 17 0.0 0.0 0.00 0.00 0.00 48 1012.6
20260504191520 17 0.0 0.0 0.00 0.00 0.00 49 1012.5
20260504190516 17 0.0 0.0 0.00 0.00 0.00 48 1012.5
20260504185527 18 0.0 0.0 0.00 0.00 0.00 47 1012.4
20260504184523 18 0.0 0.0 0.00 0.00 0.00 44 1012.3
20260504183518 20 0.0 0.0 0.00 0.00 0.00 41 1012.2
20260504182530 20 0.0 0.0 0.00 0.00 0.00 40 1012.0
20260504181525 21 0.0 0.0 0.00 0.00 0.00 40 1012.0
20260504180521 22 210 0.0 3.2 0.00 0.00 0.00 33 1012.0
20260504175517 22 247 0.0 6.4 0.00 0.00 0.00 32 1011.9
20260504174527 23 196 0.0 3.2 0.00 0.00 0.00 31 1011.9
20260504173522 24 208 0.0 3.2 0.00 0.00 0.00 33 1011.9
20260504172517 23 225 0.0 4.8 0.00 0.00 0.00 31 1011.9
20260504171528 24 291 0.0 3.2 0.00 0.00 0.00 31 1011.8
20260504170524 24 256 0.0 4.8 0.00 0.00 0.00 30 1011.8
20260504150525 29 242 3.2 8.0 0.00 0.00 0.00 20 1011.9
20260504140516 28 171 6.4 12.9 0.00 0.00 0.00 20 1012.5
20260504130520 27 180 6.4 12.9 0.00 0.00 0.00 24 1013.3
20260504110530 26 139 3.2 9.7 0.00 0.00 0.00 32 1014.5
20260504100519 24 183 4.8 11.3 0.00 0.00 0.00 36 1015.5
20260504081517 21 180 0.0 4.8 0.00 0.10 0.00 46 1016.4
20260504080528 20 195 1.6 8.0 0.00 0.10 0.00 47 1016.4
20260504050519 11 0.0 0.0 0.00 0.10 0.00 96 1016.2
20260504045515 10 0.0 0.0 0.00 0.10 0.00 96 1016.2
20260504044526 8 0.0 0.0 0.00 0.10 0.00 95 1016.0
20260504043522 8 0.0 0.0 0.00 0.10 0.00 95 1016.0
20260504042517 7 0.0 0.0 0.00 0.10 0.00 94 1016.1
20260504041528 7 0.0 0.0 0.00 0.10 0.00 93 1016.1
20260504040524 7 0.0 0.0 0.00 0.10 0.00 96 1016.0
20260504035520 7 0.0 0.0 0.00 0.10 0.00 95 1016.1
20260504034523 7 0.0 0.0 0.00 0.10 0.00 92 1015.9
20260504033518 7 0.0 0.0 0.00 0.10 0.00 92 1016.0
20260504032529 7 0.0 0.0 0.00 0.10 0.00 92 1016.0
20260504031525 7 0.0 0.0 0.00 0.10 0.00 92 1016.0
20260504030521 7 0.0 0.0 0.00 0.10 0.00 92 1015.9
20260504025517 7 0.0 0.0 0.00 0.10 0.00 92 1016.1
20260504024528 7 0.0 0.0 0.00 0.10 0.00 91 1016.1
20260504023523 7 0.0 0.0 0.00 0.10 0.00 90 1015.9
20260504022518 7 0.0 0.0 0.00 0.10 0.00 90 1016.0
20260504021529 7 0.0 0.0 0.00 0.10 0.00 90 1016.1
20260504020525 8 0.0 0.0 0.00 0.10 0.00 89 1016.0
20260504015521 8 0.0 0.0 0.00 0.10 0.00 88 1016.1
20260504014517 8 0.0 0.0 0.00 0.10 0.00 87 1016.0
20260504013528 8 0.0 0.0 0.00 0.10 0.00 86 1016.0
20260504012523 8 0.0 0.0 0.00 0.10 0.00 85 1016.0
20260504011519 9 0.0 0.0 0.00 0.10 0.00 85 1016.0
20260504010530 9 0.0 0.0 0.00 0.10 0.00 85 1016.1
20260504005525 10 0.0 0.0 0.00 0.10 0.00 85 1016.0
20260504004521 10 0.0 0.0 0.00 0.10 0.00 85 1016.0
20260504003524 10 0.0 0.0 0.00 0.10 0.00 85 1016.0
20260504002519 10 0.0 0.0 0.00 0.10 0.00 85 1016.0
20260504001515 10 0.0 0.0 0.00 0.10 0.00 85 1016.1
20260504000526 10 0.0 0.0 0.00 0.10 0.00 84 1016.0
20260503235522 10 0.0 0.0 0.00 0.10 0.00 85 1016.0
20260503234517 10 0.0 0.0 0.00 0.10 0.00 83 1016.0
20260503233529 10 0.0 0.0 0.00 0.10 0.00 83 1015.9
20260503232523 10 0.0 0.0 0.00 0.10 0.00 83 1015.8
20260503231519 10 0.0 0.0 0.00 0.10 0.00 82 1015.8
20260503230530 10 0.0 0.0 0.00 0.10 0.00 82 1015.8
20260503225526 10 0.0 0.0 0.00 0.10 0.00 81 1015.8
20260503224522 11 0.0 0.0 0.00 0.10 0.00 81 1015.8
20260503223518 11 0.0 0.0 0.00 0.10 0.00 80 1015.8
20260503222529 11 0.0 0.0 0.00 0.10 0.00 79 1015.9
20260503221524 11 0.0 0.0 0.00 0.10 0.00 78 1015.8
20260503220520 11 0.0 0.0 0.00 0.10 0.00 77 1015.8
20260503215516 11 0.0 0.0 0.00 0.10 0.10 76 1015.8
20260503214527 12 0.0 0.0 0.00 0.10 0.10 75 1015.8